Location: Wald
(31.7579°N, 86.6655°W)
Time: 21:09:43
(UTC+00:00)

Hubble Space Telescope - Pass Details

Date: 14 July 2020
Orbit: 536 x 540 km, 28.5° (Epoch: 13 August)

Event Time Altitude Azimuth Distance (km) Brightness Sun altitude
Rises 01:38:26 0° 261° (W) 2,667 5.1 -9.1°
Reaches altitude 10° 01:40:43 10° 257° (WSW) 1,778 4.1 -9.5°
Maximum altitude 01:44:44 54° 179° (S) 649 1.0 -10.2°
Enters shadow 01:48:08 14° 104° (ESE) 1,542 2.5 -10.8°
